Location: Catstown
(52.4386°N, 7.2633°W)
Time: 11:34:46
(UTC+00:00)

Cosmos 1833 Rocket - Pass Details

Date: 20 January 2021
Orbit: 833 x 839 km, 71.0° (Epoch: 24 February)

Event Time Altitude Azimuth Distance (km) Brightness Sun altitude
Rises 17:44:18 0° 326° (NW) 3,393 6.0 -7.6°
Reaches altitude 10° 17:47:35 10° 345° (NNW) 2,456 5.1 -8.1°
Maximum altitude 17:51:22 18° 28° (NNE) 1,950 4.2 -8.6°
Enters shadow 17:54:45 11° 67° (ENE) 2,362 4.3 -9.1°
